Home   Weather   Nizhny Novgorod   Past weeks

Flag for Russia Past Weather in Nizhny Novgorod, Russia — Yesterday and Last 2 Weeks

Now
75 °F

Sunny.


Feels Like: 76 °F
Forecast: 53 / 76 °F
Wind: 13 mph from South

Location: Nizhny Novgorod/Strigino

Current Time: Apr 30, 2017 at 2:05:48 pm

Latest Report: Apr 30, 2017 at 1:30 pm


Visibility: 10 mi

Pressure: 30.27 "Hg

Humidity: 22%

Dew Point: 34 °F

Location of Nizhny NovgorodLocation

Past Weather in Nizhny Novgorod — Graph

°F

Nizhny Novgorod Temperature Yesterday

Maximum temperature yesterday: 75 °F (at 5:00 pm)
Minimum temperature yesterday: 43 °F (at 12:00 am)
Average temperature yesterday: 56 °F

High & Low Weather Summary for the Past Weeks

 TemperatureHumidityPressure
High75 °F (Apr 29, 5:00 pm)100% (Apr 17, 2:00 am)30.30 "Hg (Apr 17, 2:00 am)
Low25 °F (Apr 19, 3:00 am)20% (Apr 29, 5:30 pm)29.36 "Hg (Apr 22, 11:30 pm)
Average41 °F65%29.90 "Hg
* Reported Apr 15 1:00 pm — Apr 30 1:00 pm, Nizhny Novgorod, Weather by CustomWeather, © 2017

Note: Actual official high and low records may vary slightly from our data, if they occured in-between our weather recording intervals... More about our weather records

Advertising

Nizhny Novgorod Weather History for the Previous 24 Hours

Scroll right to see more
 ConditionsComfort  
Time TempWeatherWind HumidityBarometerVisibility
1:00 pm
Sun, Apr 30
75 °FSunny.15 mph24%30.27 "Hg10 mi
12:30 pm75 °FSunny.13 mph21%30.27 "Hg10 mi
12:00 pm75 °FSunny.15 mph24%30.27 "Hg10 mi
11:30 am73 °FPassing clouds.13 mph25%30.27 "HgN/A
11:00 am72 °FSunny.13 mph31%30.27 "Hg10 mi
10:30 am72 °FSunny.13 mph31%30.27 "Hg10 mi
10:00 am70 °FSunny.8 mph35%30.27 "Hg10 mi
9:30 am66 °FClear.8 mph37%30.27 "Hg6 mi
9:00 am66 °FSunny.6 mph37%30.27 "Hg10 mi
8:30 am63 °FSunny.3 mph42%30.30 "Hg10 mi
8:00 am61 °FSunny.6 mph45%30.30 "Hg10 mi
7:30 am59 °FSunny.3 mph48%30.27 "Hg10 mi
7:00 am57 °FSunny.3 mph51%30.27 "Hg10 mi
6:30 am55 °FPassing clouds.3 mph59%30.27 "HgN/A
6:00 am54 °FSunny.6 mph63%30.27 "Hg10 mi
5:30 am54 °FSunny.6 mph63%30.27 "Hg10 mi
5:00 am52 °FSunny.3 mph62%30.27 "Hg10 mi
4:30 am52 °FPassing clouds.3 mph67%30.24 "HgN/A
4:00 am50 °FClear.1 mph67%30.24 "Hg10 mi
3:30 am52 °FClear.6 mph67%30.24 "Hg10 mi
3:00 am52 °FClear.3 mph72%30.24 "Hg10 mi
2:30 am52 °FClear.1 mph67%30.24 "Hg10 mi
2:00 am48 °FClear.1 mph76%30.24 "Hg10 mi
1:30 am52 °FClear.1 mph72%30.24 "Hg10 mi
1:00 am50 °FClear.1 mph71%30.24 "Hg10 mi
12:30 am50 °FClear.3 mph71%30.21 "Hg10 mi
12:00 am52 °FClear.1 mph72%30.21 "Hg10 mi
11:30 pm
Sat, Apr 29
52 °FClear.1 mph67%30.21 "Hg10 mi
10:30 pm57 °FClear.3 mph55%30.21 "Hg10 mi
10:00 pm59 °FClear.1 mph51%30.21 "Hg10 mi
9:30 pm57 °FClear.3 mph55%30.21 "Hg10 mi
9:00 pm55 °FClear.No wind47%30.21 "Hg6 mi
8:30 pm55 °FClear.6 mph44%30.21 "Hg10 mi
8:00 pm57 °FClear.1 mph41%30.18 "Hg10 mi
7:30 pm63 °FSunny.No wind34%30.18 "Hg10 mi
7:00 pm66 °FSunny.3 mph30%30.18 "Hg10 mi
6:30 pm70 °FSunny.6 mph25%30.18 "Hg10 mi
6:00 pm72 °FSunny.10 mph23%30.15 "Hg10 mi
5:30 pm73 °FSunny.10 mph20%30.15 "Hg10 mi
5:00 pm75 °FSunny.10 mph22%30.15 "Hg10 mi
3:30 pm73 °FSunny.10 mph36%30.15 "Hg10 mi
3:00 pm72 °FSunny.10 mph41%30.15 "Hg10 mi
2:30 pm73 °FSunny.10 mph38%30.18 "Hg10 mi
2:00 pm72 °FSunny.8 mph41%30.18 "Hg10 mi
Weather by CustomWeather, © 2017

See weather overviewHow to use our weather pages